STARLINK-35967, 66634

Orbit data source: Space-Track

STARLINK-35967, 66634 is a payload satellite owned by SpaceX/Seattle (US) in LEO that was launched on Sun, 23 Nov 2025 UTC via an FALCON 9 launch vehicle from the Air Force Western Test Range (AFWTR). Payload-class satellites include a variety of spacecraft equipped with specific instruments for various scientific and technological missions. These include communications satellites like Starlink; space stations such as the ISS; scientific satellites like the Hubble; Earth observation satellites from companies like Planet Labs, Umbra, and HawkEye 360; GPS; miniature CubeSats for education and research; and military/defense satellites.

Loading next visibility...
Identifier
66634, 2025-271T
Orbit
LEO
Country
Flag of USUS
Related business
Manufacturer
SpaceX/Seattle
Mission
Operational spacecraft
Bus & Motor
STARLINK V2MO, Unknown motor
Mass
575 kg wet, ~530 kg dry
Launch date (UTC)
2025-11-23 (2 months ago)
Launch vehicle
FALCON 9
Launch site
Air Force Western Test Range (AFWTR)
Object type
Payload
Rocket body
Debris
Shape & HBR
Unknown shape, 17.7 m
Radar Cross Section
RCS unknown

Expand to show TLE details & history
Last TLE update: 4 hours ago

TLE from 4 hours ago
0 STARLINK-35967
1 66634U 25271T   26037.11066313  .00038135  00000-0  12938-2 0  9996
2 66634  53.1559 286.4868 0001247  77.1700 282.9440 15.30182551 12691
Epoch: 2026-02-06T02:39Z
TLE epoch observation values (Epoch: 2026-02-06T02:39:21.294Z)
Latitude
-0.00002°
Longitude
110.39482°
Altitude
475.975 km
Speed
7.629 km/s
True Right ascension
19h 05m 56s
True Declination
0° 00' 00"
Sunlit
Object was in daylight at epoch
Visualization orbit readout
Latitude
Unknown
Longitude
Unknown
Altitude
Unknown
Speed
Unknown
Apparent Right ascension
Unknown
Apparent Declination
Unknown
Sunlit
N/A
Visualization observer readout
Local Sidereal Time
09:05:38
Azimuth
Unknown
Elevation
Unknown
Doppler factor
Unknown
Orbital elements
Apogee altitude
476.379 km
Perigee altitude
474.67 km
Semi-major axis
6,853.661 km
Eccentricity
0.00012
Inclination
53.1559°
RAAN
286.4868°
Arg. of periapsis
77.17°
True anomaly
282.93007°
Mean anomaly
282.944°
Eccentric anomaly
282.93704°
Mean motion
3.82524 °/min
Orbital period
94.11 mins
BSTAR
0.0012938
Loading maneuver chart data...
Computing Atmospheric mass density...
Loading historical data...
Loading historical data...
Loading historical data...
Loading historical data...
Loading historical data...
Loading historical data...
Loading historical data...

Documentation

Showing up to 5 results
|